Simultaneous Nadir Overpasses (SNOs) Predictions

Prediction of SNOs between GOES-15 and LANDSAT-8 Satellite Orbit:

Table of predicted SNOs for the next 14.0 days since TLE Epoch: 10/1/2022
Index Date Time (GOES-15) GOES-15 Lat,Lon LANDSAT-8 Lat,Lon Distance(km) Time Diff (sec)
1 10/02/2022 06:34:23 0.30,-128.15 0.79,-125.82 264.50 80
2 10/02/2022 18:55:39 -0.31,-128.16 0.26,-130.99 320.69 80
3 10/04/2022 18:46:06 -0.30,-128.20 -0.31,-128.02 20.18 80
4 10/06/2022 18:33:54 -0.30,-128.23 -0.96,-125.06 360.66 80
5 10/07/2022 06:55:17 0.30,-128.25 -0.14,-130.25 228.15 80
6 10/09/2022 06:40:25 0.30,-128.28 0.52,-127.29 112.39 80
7 10/09/2022 19:01:40 -0.31,-128.28 0.58,-132.45 474.27 80
8 10/11/2022 06:28:13 0.30,-128.31 1.14,-124.33 452.75 80
9 10/11/2022 18:49:27 -0.31,-128.31 -0.03,-129.48 133.79 80
10 10/13/2022 18:39:54 -0.30,-128.33 -0.66,-126.52 206.22 80
11 10/14/2022 07:01:18 0.30,-128.36 -0.42,-131.71 381.23 80
